Time,TemperatureF,DewpointF,PressureIn,WindDirection,WindDirectionDegrees,WindSpeedMPH,WindSpeedGustMPH,Humidity,HourlyPrecipIn,Conditions,Clouds,dailyrainin,SoftwareType,DateUTC
2013-06-05 00:02:00,73.5,64.4,29.85,North,0,0.0,0.0,73,0.00,,,0.00,WUHU216HW,2013-06-05 05:02:00,
2013-06-05 00:07:00,73.2,64.4,29.85,North,0,0.0,0.0,74,0.00,,,0.00,WUHU216HW,2013-06-05 05:07:00,
2013-06-05 00:12:00,73.0,64.6,29.85,North,0,0.0,0.0,75,0.00,,,0.00,WUHU216HW,2013-06-05 05:12:00,
2013-06-05 00:17:00,73.0,64.6,29.85,North,0,0.0,0.0,76,0.00,,,0.00,WUHU216HW,2013-06-05 05:17:00,
2013-06-05 00:22:00,73.0,64.6,29.85,North,0,0.0,0.0,76,0.00,,,0.00,WUHU216HW,2013-06-05 05:22:00,
2013-06-05 00:27:00,73.0,64.6,29.85,North,0,0.0,0.0,76,0.00,,,0.00,WUHU216HW,2013-06-05 05:27:00,
2013-06-05 00:32:00,73.0,64.6,29.85,North,0,0.0,0.0,75,0.00,,,0.00,WUHU216HW,2013-06-05 05:32:00,
2013-06-05 00:37:00,72.8,64.8,29.85,North,0,0.0,0.0,76,0.00,,,0.00,WUHU216HW,2013-06-05 05:37:00,
2013-06-05 00:42:00,72.6,64.6,29.85,North,0,0.0,0.0,76,0.00,,,0.00,WUHU216HW,2013-06-05 05:42:00,
2013-06-05 00:47:00,72.5,64.5,29.85,North,0,0.0,0.0,76,0.00,,,0.00,WUHU216HW,2013-06-05 05:47:00,
2013-06-05 00:52:00,72.5,64.1,29.85,North,0,0.0,0.0,75,0.00,,,0.00,WUHU216HW,2013-06-05 05:52:00,
2013-06-05 00:57:00,72.5,64.1,29.85,North,0,0.0,0.0,75,0.00,,,0.00,WUHU216HW,2013-06-05 05:57:00,
2013-06-05 01:02:00,72.3,63.9,29.86,North,0,0.0,0.0,75,0.00,,,0.00,WUHU216HW,2013-06-05 06:02:00,
2013-06-05 01:07:00,72.3,63.9,29.86,North,0,0.0,0.0,75,0.00,,,0.00,WUHU216HW,2013-06-05 06:07:00,
2013-06-05 01:12:00,72.1,64.1,29.85,North,0,0.0,0.0,76,0.00,,,0.00,WUHU216HW,2013-06-05 06:12:00,
2013-06-05 01:17:00,71.9,63.9,29.86,North,0,0.0,0.0,76,0.00,,,0.00,WUHU216HW,2013-06-05 06:17:00,
2013-06-05 01:22:00,71.7,63.7,29.86,North,0,0.0,0.0,76,0.00,,,0.00,WUHU216HW,2013-06-05 06:22:00,
2013-06-05 01:27:00,71.7,63.7,29.85,North,0,0.0,0.0,77,0.00,,,0.00,WUHU216HW,2013-06-05 06:27:00,
2013-06-05 01:32:00,71.4,63.8,29.85,North,0,0.0,0.0,78,0.00,,,0.00,WUHU216HW,2013-06-05 06:32:00,
2013-06-05 01:37:00,71.2,64.0,29.85,North,0,0.0,0.0,78,0.00,,,0.00,WUHU216HW,2013-06-05 06:37:00,
2013-06-05 01:42:00,71.2,64.0,29.85,North,0,0.0,0.0,78,0.00,,,0.00,WUHU216HW,2013-06-05 06:42:00,
2013-06-05 01:47:00,71.2,64.0,29.85,North,0,0.0,0.0,78,0.00,,,0.00,WUHU216HW,2013-06-05 06:47:00,
2013-06-05 02:12:00,70.3,64.2,29.85,North,0,0.0,0.0,81,0.00,,,0.00,WUHU216HW,2013-06-05 07:12:00,
2013-06-05 02:17:00,70.3,64.2,29.85,North,0,0.0,0.0,81,0.00,,,0.00,WUHU216HW,2013-06-05 07:17:00,
2013-06-05 02:22:00,70.1,64.3,29.85,North,0,0.0,0.0,82,0.00,,,0.00,WUHU216HW,2013-06-05 07:22:00,
2013-06-05 02:27:00,70.1,64.3,29.85,North,0,0.0,0.0,82,0.00,,,0.00,WUHU216HW,2013-06-05 07:27:00,
2013-06-05 02:42:00,69.8,64.6,29.86,North,0,0.0,0.0,84,0.00,,,0.00,WUHU216HW,2013-06-05 07:42:00,
2013-06-05 02:47:00,69.4,64.3,29.87,North,0,0.0,0.0,84,0.00,,,0.00,WUHU216HW,2013-06-05 07:47:00,
2013-06-05 02:52:00,69.4,64.3,29.87,North,0,0.0,0.0,84,0.00,,,0.00,WUHU216HW,2013-06-05 07:52:00,
2013-06-05 02:57:00,69.4,64.3,29.87,North,0,0.0,0.0,84,0.00,,,0.00,WUHU216HW,2013-06-05 07:57:00,
2013-06-05 03:02:00,69.0,64.0,29.85,North,0,0.0,0.0,85,0.00,,,0.00,WUHU216HW,2013-06-05 08:02:00,
2013-06-05 03:07:00,69.0,64.0,29.85,North,0,0.0,0.0,86,0.00,,,0.00,WUHU216HW,2013-06-05 08:07:00,
2013-06-05 03:12:00,69.0,64.0,29.85,North,0,0.0,0.0,86,0.00,,,0.00,WUHU216HW,2013-06-05 08:12:00,
2013-06-05 03:17:00,69.0,64.0,29.85,North,0,0.0,0.0,86,0.00,,,0.00,WUHU216HW,2013-06-05 08:17:00,
2013-06-05 03:22:00,69.0,64.0,29.85,North,0,0.0,0.0,87,0.00,,,0.00,WUHU216HW,2013-06-05 08:22:00,
2013-06-05 03:27:00,69.0,64.0,29.85,North,0,0.0,0.0,87,0.00,,,0.00,WUHU216HW,2013-06-05 08:27:00,
2013-06-05 03:32:00,69.0,64.0,29.85,North,0,0.0,0.0,87,0.00,,,0.00,WUHU216HW,2013-06-05 08:32:00,
2013-06-05 03:37:00,69.0,64.0,29.85,North,0,0.0,0.0,87,0.00,,,0.00,WUHU216HW,2013-06-05 08:37:00,
2013-06-05 03:42:00,68.9,64.8,29.84,North,0,0.0,0.0,87,0.00,,,0.00,WUHU216HW,2013-06-05 08:42:00,
2013-06-05 03:47:00,68.9,64.8,29.84,North,0,0.0,0.0,87,0.00,,,0.00,WUHU216HW,2013-06-05 08:47:00,
2013-06-05 03:52:00,68.7,64.6,29.85,North,0,0.0,0.0,87,0.00,,,0.00,WUHU216HW,2013-06-05 08:52:00,
2013-06-05 03:57:00,68.7,64.6,29.84,North,0,0.0,0.0,88,0.00,,,0.00,WUHU216HW,2013-06-05 08:57:00,
2013-06-05 04:02:00,68.5,64.8,29.84,North,0,0.0,0.0,88,0.00,,,0.00,WUHU216HW,2013-06-05 09:02:00,
2013-06-05 04:07:00,68.5,64.8,29.85,North,0,0.0,0.0,88,0.00,,,0.00,WUHU216HW,2013-06-05 09:07:00,
2013-06-05 04:12:00,68.3,64.6,29.85,North,0,0.0,0.0,88,0.00,,,0.00,WUHU216HW,2013-06-05 09:12:00,
2013-06-05 04:17:00,68.5,64.8,29.85,North,0,0.0,0.0,88,0.00,,,0.00,WUHU216HW,2013-06-05 09:17:00,
2013-06-05 04:22:00,68.5,64.8,29.84,North,0,0.0,0.0,89,0.00,,,0.00,WUHU216HW,2013-06-05 09:22:00,
2013-06-05 04:27:00,68.5,64.8,29.84,North,0,0.0,0.0,89,0.00,,,0.00,WUHU216HW,2013-06-05 09:27:00,
2013-06-05 04:32:00,68.5,64.8,29.84,North,0,0.0,0.0,89,0.00,,,0.00,WUHU216HW,2013-06-05 09:32:00,
2013-06-05 04:37:00,68.5,64.8,29.83,North,0,0.0,0.0,89,0.00,,,0.00,WUHU216HW,2013-06-05 09:37:00,
2013-06-05 04:42:00,68.5,64.8,29.83,North,0,0.0,0.0,89,0.00,,,0.00,WUHU216HW,2013-06-05 09:42:00,
2013-06-05 04:47:00,68.5,64.8,29.83,North,0,0.0,0.0,89,0.00,,,0.00,WUHU216HW,2013-06-05 09:47:00,
2013-06-05 04:52:00,68.5,64.8,29.83,North,0,0.0,0.0,89,0.00,,,0.00,WUHU216HW,2013-06-05 09:52:00,
2013-06-05 04:57:00,68.7,65.3,29.83,North,0,0.0,0.0,89,0.00,,,0.00,WUHU216HW,2013-06-05 09:57:00,
2013-06-05 05:02:00,68.7,65.3,29.82,North,0,0.0,0.0,89,0.00,,,0.00,WUHU216HW,2013-06-05 10:02:00,
2013-06-05 05:07:00,68.7,65.3,29.82,North,0,0.0,0.0,89,0.00,,,0.00,WUHU216HW,2013-06-05 10:07:00,
2013-06-05 05:12:00,68.9,65.5,29.82,North,0,0.0,0.0,89,0.00,,,0.00,WUHU216HW,2013-06-05 10:12:00,
2013-06-05 05:17:00,68.7,65.3,29.82,North,0,0.0,0.0,89,0.00,,,0.00,WUHU216HW,2013-06-05 10:17:00,
2013-06-05 05:22:00,68.9,65.5,29.82,North,0,0.0,0.0,89,0.00,,,0.00,WUHU216HW,2013-06-05 10:22:00,
2013-06-05 05:27:00,68.7,65.3,29.82,North,0,0.0,0.0,89,0.00,,,0.00,WUHU216HW,2013-06-05 10:27:00,
2013-06-05 05:32:00,68.7,65.3,29.82,North,0,0.0,0.0,89,0.00,,,0.00,WUHU216HW,2013-06-05 10:32:00,
2013-06-05 05:37:00,68.7,65.3,29.82,North,0,0.0,0.0,89,0.00,,,0.00,WUHU216HW,2013-06-05 10:37:00,
2013-06-05 05:42:00,68.7,65.3,29.82,North,0,0.0,0.0,89,0.00,,,0.00,WUHU216HW,2013-06-05 10:42:00,
2013-06-05 05:56:00,68.5,65.1,29.82,North,0,0.0,0.0,89,0.00,,,0.00,WUHU216HW,2013-06-05 10:56:00,
2013-06-05 06:01:00,68.5,65.1,29.82,North,0,0.0,0.0,89,0.00,,,0.00,WUHU216HW,2013-06-05 11:01:00,
2013-06-05 06:06:00,68.5,65.1,29.82,North,0,0.0,0.0,89,0.00,,,0.00,WUHU216HW,2013-06-05 11:06:00,
2013-06-05 06:11:00,68.5,65.1,29.82,North,0,0.0,0.0,89,0.00,,,0.00,WUHU216HW,2013-06-05 11:11:00,
2013-06-05 06:16:00,68.5,65.1,29.82,North,0,0.0,0.0,89,0.00,,,0.00,WUHU216HW,2013-06-05 11:16:00,
2013-06-05 06:21:00,68.5,65.1,29.82,North,0,0.0,0.0,89,0.00,,,0.00,WUHU216HW,2013-06-05 11:21:00,
2013-06-05 06:26:00,68.5,65.1,29.82,North,0,0.0,0.0,89,0.00,,,0.00,WUHU216HW,2013-06-05 11:26:00,
2013-06-05 06:31:00,68.5,65.1,29.82,North,0,0.0,0.0,89,0.00,,,0.00,WUHU216HW,2013-06-05 11:31:00,
2013-06-05 06:36:00,68.5,65.1,29.83,North,0,0.0,0.0,89,0.00,,,0.00,WUHU216HW,2013-06-05 11:36:00,
2013-06-05 06:41:00,68.5,65.1,29.83,North,0,0.0,0.0,89,0.00,,,0.00,WUHU216HW,2013-06-05 11:41:00,
2013-06-05 06:46:00,68.7,65.3,29.83,North,0,0.0,0.0,89,0.00,,,0.00,WUHU216HW,2013-06-05 11:46:00,
2013-06-05 06:51:00,68.7,65.3,29.83,North,0,0.0,0.0,89,0.00,,,0.00,WUHU216HW,2013-06-05 11:51:00,
2013-06-05 06:56:00,68.7,65.3,29.83,North,0,0.0,0.0,89,0.00,,,0.00,WUHU216HW,2013-06-05 11:56:00,
2013-06-05 07:01:00,68.7,65.3,29.83,North,0,0.0,0.0,89,0.00,,,0.00,WUHU216HW,2013-06-05 12:01:00,
2013-06-05 07:06:00,68.7,65.3,29.83,North,0,0.0,0.0,89,0.00,,,0.00,WUHU216HW,2013-06-05 12:06:00,
2013-06-05 07:11:00,68.7,65.3,29.83,North,0,0.0,0.0,89,0.00,,,0.00,WUHU216HW,2013-06-05 12:11:00,
2013-06-05 07:16:00,68.7,65.3,29.83,North,0,0.0,0.0,89,0.00,,,0.00,WUHU216HW,2013-06-05 12:16:00,
2013-06-05 07:21:00,68.7,65.3,29.84,North,0,0.0,0.0,89,0.00,,,0.00,WUHU216HW,2013-06-05 12:21:00,
2013-06-05 07:26:00,68.9,65.5,29.84,North,0,0.0,0.0,89,0.00,,,0.00,WUHU216HW,2013-06-05 12:26:00,
2013-06-05 07:31:00,68.9,65.5,29.84,North,0,0.0,0.0,89,0.00,,,0.00,WUHU216HW,2013-06-05 12:31:00,
2013-06-05 07:36:00,69.0,65.6,29.84,North,0,0.0,0.0,89,0.00,,,0.00,WUHU216HW,2013-06-05 12:36:00,
2013-06-05 07:41:00,69.4,66.0,29.84,North,0,0.0,0.0,89,0.00,,,0.00,WUHU216HW,2013-06-05 12:41:00,
2013-06-05 07:46:00,69.4,66.0,29.84,North,0,0.0,0.0,88,0.00,,,0.00,WUHU216HW,2013-06-05 12:46:00,
2013-06-05 07:51:00,69.6,65.8,29.84,North,0,0.0,0.0,88,0.00,,,0.00,WUHU216HW,2013-06-05 12:51:00,
2013-06-05 07:56:00,70.1,66.4,29.84,North,0,0.0,0.0,88,0.00,,,0.00,WUHU216HW,2013-06-05 12:56:00,
2013-06-05 08:01:00,70.3,66.2,29.84,North,0,0.0,0.0,87,0.00,,,0.00,WUHU216HW,2013-06-05 13:01:00,
2013-06-05 08:06:00,70.5,66.4,29.84,North,0,0.0,0.0,87,0.00,,,0.00,WUHU216HW,2013-06-05 13:06:00,
2013-06-05 08:11:00,70.5,66.4,29.85,North,0,0.0,0.0,87,0.00,,,0.00,WUHU216HW,2013-06-05 13:11:00,
2013-06-05 08:17:00,70.8,66.4,29.85,North,0,0.0,0.0,86,0.00,,,0.00,WUHU216HW,2013-06-05 13:17:00,
2013-06-05 08:22:00,71.7,67.0,29.85,North,0,0.0,0.0,85,0.00,,,0.00,WUHU216HW,2013-06-05 13:22:00,
2013-06-05 08:27:00,72.6,67.5,29.85,North,0,0.0,0.0,84,0.00,,,0.00,WUHU216HW,2013-06-05 13:27:00,
2013-06-05 08:32:00,73.2,67.4,29.86,North,0,0.0,0.0,82,0.00,,,0.00,WUHU216HW,2013-06-05 13:32:00,
2013-06-05 08:37:00,73.5,67.7,29.86,North,0,0.0,0.0,82,0.00,,,0.00,WUHU216HW,2013-06-05 13:37:00,
2013-06-05 08:42:00,73.4,67.2,29.86,North,0,0.0,0.0,81,0.00,,,0.00,WUHU216HW,2013-06-05 13:42:00,
2013-06-05 08:47:00,73.2,66.7,29.86,North,0,0.0,0.0,80,0.00,,,0.00,WUHU216HW,2013-06-05 13:47:00,
2013-06-05 08:52:00,73.2,66.7,29.86,North,0,0.0,0.0,80,0.00,,,0.00,WUHU216HW,2013-06-05 13:52:00,
2013-06-05 09:30:00,77.1,68.2,29.85,North,0,0.0,0.0,74,0.00,,,0.00,WUHU216HW,2013-06-05 14:30:00,
2013-06-05 09:35:00,79.3,68.2,29.85,North,0,0.0,0.0,69,0.00,,,0.00,WUHU216HW,2013-06-05 14:35:00,
2013-06-05 09:40:00,78.6,67.5,29.85,North,0,0.0,0.0,69,0.00,,,0.00,WUHU216HW,2013-06-05 14:40:00,
2013-06-05 09:45:00,78.9,67.9,29.85,North,0,0.0,0.0,69,0.00,,,0.00,WUHU216HW,2013-06-05 14:45:00,
2013-06-05 09:50:00,78.8,67.3,29.86,North,0,0.0,0.0,68,0.00,,,0.00,WUHU216HW,2013-06-05 14:50:00,
2013-06-05 09:55:00,78.8,67.7,29.85,North,0,0.0,0.0,69,0.00,,,0.00,WUHU216HW,2013-06-05 14:55:00,
2013-06-05 10:00:00,78.9,67.9,29.85,North,0,0.0,0.0,69,0.00,,,0.00,WUHU216HW,2013-06-05 15:00:00,
2013-06-05 10:05:00,79.8,67.4,29.86,North,0,0.0,0.0,66,0.00,,,0.00,WUHU216HW,2013-06-05 15:05:00,
2013-06-05 10:10:00,79.8,67.4,29.86,North,0,0.0,0.0,67,0.00,,,0.00,WUHU216HW,2013-06-05 15:10:00,
2013-06-05 10:15:00,80.4,67.1,29.85,North,0,0.0,0.0,64,0.00,,,0.00,WUHU216HW,2013-06-05 15:15:00,
2013-06-05 10:20:00,81.1,68.6,29.85,North,0,0.0,0.0,66,0.00,,,0.00,WUHU216HW,2013-06-05 15:20:00,
2013-06-05 10:25:00,81.6,67.8,29.85,North,0,0.0,0.0,63,0.00,,,0.00,WUHU216HW,2013-06-05 15:25:00,
2013-06-05 10:30:00,81.3,66.5,29.86,North,0,0.0,0.0,61,0.00,,,0.00,WUHU216HW,2013-06-05 15:30:00,
2013-06-05 10:35:00,81.3,66.5,29.86,North,0,0.0,0.0,64,0.00,,,0.00,WUHU216HW,2013-06-05 15:35:00,
2013-06-05 10:40:00,82.0,69.0,29.86,North,0,0.0,0.0,65,0.00,,,0.00,WUHU216HW,2013-06-05 15:40:00,
2013-06-05 10:45:00,82.5,67.7,29.86,North,0,0.0,0.0,61,0.00,,,0.00,WUHU216HW,2013-06-05 15:45:00,
2013-06-05 10:50:00,82.9,68.9,29.85,North,0,0.0,0.0,61,0.00,,,0.00,WUHU216HW,2013-06-05 15:50:00,
2013-06-05 10:55:00,83.8,69.4,29.85,North,0,0.0,0.0,62,0.00,,,0.00,WUHU216HW,2013-06-05 15:55:00,
2013-06-05 11:00:00,84.2,70.2,29.85,North,0,0.0,0.0,63,0.00,,,0.00,WUHU216HW,2013-06-05 16:00:00,
2013-06-05 11:05:00,85.4,70.0,29.85,North,0,0.0,0.0,60,0.00,,,0.00,WUHU216HW,2013-06-05 16:05:00,
2013-06-05 11:10:00,85.6,69.6,29.85,North,0,0.0,0.0,59,0.00,,,0.00,WUHU216HW,2013-06-05 16:10:00,
2013-06-05 11:15:00,85.6,69.1,29.85,North,0,0.0,0.0,58,0.00,,,0.00,WUHU216HW,2013-06-05 16:15:00,
2013-06-05 11:20:00,84.9,67.9,29.85,North,0,0.0,0.0,57,0.00,,,0.00,WUHU216HW,2013-06-05 16:20:00,
2013-06-05 11:25:00,85.8,68.7,29.85,North,0,0.0,0.0,57,0.00,,,0.00,WUHU216HW,2013-06-05 16:25:00,
2013-06-05 11:30:00,86.0,69.4,29.85,North,0,0.0,0.0,56,0.00,,,0.00,WUHU216HW,2013-06-05 16:30:00,
2013-06-05 11:35:00,86.3,69.3,29.85,North,0,0.0,0.0,57,0.00,,,0.00,WUHU216HW,2013-06-05 16:35:00,
2013-06-05 11:40:00,86.3,69.3,29.85,North,0,0.0,0.0,57,0.00,,,0.00,WUHU216HW,2013-06-05 16:40:00,
2013-06-05 11:53:00,88.8,71.1,29.85,North,0,0.0,0.0,56,0.00,,,0.00,WUHU216HW,2013-06-05 16:53:00,
2013-06-05 11:58:00,88.8,70.5,29.85,North,0,0.0,0.0,55,0.00,,,0.00,WUHU216HW,2013-06-05 16:58:00,
2013-06-05 12:03:00,88.8,69.5,29.85,North,0,0.0,0.0,53,0.00,,,0.00,WUHU216HW,2013-06-05 17:03:00,
2013-06-05 12:08:00,88.8,69.5,29.85,North,0,0.0,0.0,56,0.00,,,0.00,WUHU216HW,2013-06-05 17:08:00,
2013-06-05 12:13:00,89.6,70.1,29.85,North,0,0.0,0.0,53,0.00,,,0.00,WUHU216HW,2013-06-05 17:13:00,
2013-06-05 12:18:00,90.3,71.8,29.85,North,0,0.0,0.0,55,0.00,,,0.00,WUHU216HW,2013-06-05 17:18:00,
2013-06-05 12:23:00,89.9,69.9,29.85,North,0,0.0,0.0,52,0.00,,,0.00,WUHU216HW,2013-06-05 17:23:00,
2013-06-05 12:28:00,90.3,71.3,29.85,North,0,0.0,0.0,54,0.00,,,0.00,WUHU216HW,2013-06-05 17:28:00,
2013-06-05 12:33:00,91.5,71.9,29.85,North,0,0.0,0.0,53,0.00,,,0.00,WUHU216HW,2013-06-05 17:33:00,
2013-06-05 12:38:00,91.2,70.5,29.85,North,0,0.0,0.0,53,0.00,,,0.00,WUHU216HW,2013-06-05 17:38:00,
2013-06-05 12:43:00,91.7,71.0,29.85,North,0,0.0,0.0,51,0.00,,,0.00,WUHU216HW,2013-06-05 17:43:00,
2013-06-05 12:48:00,91.2,69.3,29.85,North,0,0.0,0.0,49,0.00,,,0.00,WUHU216HW,2013-06-05 17:48:00,
2013-06-05 12:53:00,90.8,71.2,29.85,North,0,0.0,0.0,53,0.00,,,0.00,WUHU216HW,2013-06-05 17:53:00,
2013-06-05 12:58:00,91.0,71.4,29.85,North,0,0.0,0.0,52,0.00,,,0.00,WUHU216HW,2013-06-05 17:58:00,
2013-06-05 13:03:00,92.1,70.8,29.85,North,0,0.0,0.0,50,0.00,,,0.00,WUHU216HW,2013-06-05 18:03:00,
2013-06-05 13:08:00,92.8,71.4,29.85,North,0,0.0,0.0,50,0.00,,,0.00,WUHU216HW,2013-06-05 18:08:00,
2013-06-05 13:13:00,93.3,70.0,29.85,North,0,0.0,0.0,47,0.00,,,0.00,WUHU216HW,2013-06-05 18:13:00,
2013-06-05 13:18:00,93.0,70.9,29.85,North,0,0.0,0.0,49,0.00,,,0.00,WUHU216HW,2013-06-05 18:18:00,
2013-06-05 13:23:00,93.7,71.6,29.85,North,0,0.0,0.0,49,0.00,,,0.00,WUHU216HW,2013-06-05 18:23:00,
2013-06-05 13:28:00,94.1,70.0,29.85,North,0,0.0,0.0,48,0.00,,,0.00,WUHU216HW,2013-06-05 18:28:00,
2013-06-05 13:33:00,93.7,71.0,29.85,North,0,0.0,0.0,48,0.00,,,0.00,WUHU216HW,2013-06-05 18:33:00,
2013-06-05 13:38:00,94.6,70.5,29.85,North,0,0.0,0.0,46,0.00,,,0.00,WUHU216HW,2013-06-05 18:38:00,
2013-06-05 13:43:00,94.6,70.5,29.85,North,0,0.0,0.0,48,0.00,,,0.00,WUHU216HW,2013-06-05 18:43:00,
2013-06-05 13:48:00,94.8,70.0,29.85,North,0,0.0,0.0,45,0.00,,,0.00,WUHU216HW,2013-06-05 18:48:00,
2013-06-05 13:53:00,95.3,70.5,29.85,North,0,0.0,0.0,45,0.00,,,0.00,WUHU216HW,2013-06-05 18:53:00,
2013-06-05 13:58:00,95.1,68.4,29.85,North,0,0.0,0.0,42,0.00,,,0.00,WUHU216HW,2013-06-05 18:58:00,
2013-06-05 14:03:00,95.5,70.7,29.85,North,0,0.0,0.0,45,0.00,,,0.00,WUHU216HW,2013-06-05 19:03:00,
2013-06-05 14:08:00,95.5,68.7,29.85,North,0,0.0,0.0,43,0.00,,,0.00,WUHU216HW,2013-06-05 19:08:00,
2013-06-05 14:13:00,95.7,69.5,29.85,North,0,0.0,0.0,44,0.00,,,0.00,WUHU216HW,2013-06-05 19:13:00,
2013-06-05 14:18:00,95.7,69.5,29.85,North,0,0.0,0.0,43,0.00,,,0.00,WUHU216HW,2013-06-05 19:18:00,
2013-06-05 14:23:00,95.9,70.3,29.85,North,0,0.0,0.0,43,0.00,,,0.00,WUHU216HW,2013-06-05 19:23:00,
2013-06-05 14:28:00,96.0,69.2,29.85,North,0,0.0,0.0,42,0.00,,,0.00,WUHU216HW,2013-06-05 19:28:00,
2013-06-05 14:33:00,95.9,68.3,29.85,North,0,0.0,0.0,41,0.00,,,0.00,WUHU216HW,2013-06-05 19:33:00,
2013-06-05 14:38:00,96.0,70.5,29.85,North,0,0.0,0.0,44,0.00,,,0.00,WUHU216HW,2013-06-05 19:38:00,
2013-06-05 14:43:00,96.4,69.5,29.85,North,0,0.0,0.0,42,0.00,,,0.00,WUHU216HW,2013-06-05 19:43:00,
2013-06-05 14:48:00,96.4,69.5,29.85,North,0,0.0,0.0,42,0.00,,,0.00,WUHU216HW,2013-06-05 19:48:00,
2013-06-05 15:14:00,95.1,68.4,29.84,North,0,0.0,0.0,42,0.00,,,0.00,WUHU216HW,2013-06-05 20:14:00,
2013-06-05 15:19:00,95.1,68.4,29.84,North,0,0.0,0.0,42,0.00,,,0.00,WUHU216HW,2013-06-05 20:19:00,
2013-06-05 15:25:00,95.1,68.4,29.84,North,0,0.0,0.0,42,0.00,,,0.00,WUHU216HW,2013-06-05 20:25:00,
2013-06-05 15:48:00,95.7,70.9,29.83,North,0,0.0,0.0,45,0.00,,,0.00,WUHU216HW,2013-06-05 20:48:00,
2013-06-05 15:53:00,95.7,70.9,29.83,North,0,0.0,0.0,44,0.00,,,0.00,WUHU216HW,2013-06-05 20:53:00,
2013-06-05 15:58:00,95.7,70.9,29.83,North,0,0.0,0.0,44,0.00,,,0.00,WUHU216HW,2013-06-05 20:58:00,
2013-06-05 16:07:00,96.0,69.8,29.83,North,0,0.0,0.0,43,0.00,,,0.00,WUHU216HW,2013-06-05 21:07:00,
2013-06-05 16:12:00,95.7,68.9,29.82,North,0,0.0,0.0,42,0.00,,,0.00,WUHU216HW,2013-06-05 21:12:00,
2013-06-05 16:17:00,95.1,69.0,29.82,North,0,0.0,0.0,43,0.00,,,0.00,WUHU216HW,2013-06-05 21:17:00,
2013-06-05 16:22:00,95.1,69.0,29.82,North,0,0.0,0.0,42,0.00,,,0.00,WUHU216HW,2013-06-05 21:22:00,
2013-06-05 16:27:00,95.0,69.5,29.82,North,0,0.0,0.0,44,0.00,,,0.00,WUHU216HW,2013-06-05 21:27:00,
2013-06-05 16:32:00,95.0,70.2,29.82,North,0,0.0,0.0,45,0.00,,,0.00,WUHU216HW,2013-06-05 21:32:00,
2013-06-05 16:37:00,94.6,67.9,29.81,North,0,0.0,0.0,42,0.00,,,0.00,WUHU216HW,2013-06-05 21:37:00,
2013-06-05 16:42:00,94.6,67.9,29.81,North,0,0.0,0.0,45,0.00,,,0.00,WUHU216HW,2013-06-05 21:42:00,
2013-06-05 16:47:00,94.2,68.2,29.80,North,0,0.0,0.0,43,0.00,,,0.00,WUHU216HW,2013-06-05 21:47:00,
2013-06-05 16:52:00,93.9,67.9,29.80,North,0,0.0,0.0,43,0.00,,,0.00,WUHU216HW,2013-06-05 21:52:00,
2013-06-05 16:57:00,93.3,68.7,29.80,North,0,0.0,0.0,45,0.00,,,0.00,WUHU216HW,2013-06-05 21:57:00,
2013-06-05 17:02:00,92.8,68.8,29.79,North,0,0.0,0.0,46,0.00,,,0.00,WUHU216HW,2013-06-05 22:02:00,
2013-06-05 17:07:00,92.4,69.8,29.79,North,0,0.0,0.0,47,0.00,,,0.00,WUHU216HW,2013-06-05 22:07:00,
2013-06-05 17:12:00,92.3,69.0,29.79,North,0,0.0,0.0,47,0.00,,,0.00,WUHU216HW,2013-06-05 22:12:00,
2013-06-05 17:17:00,92.8,69.5,29.78,North,0,0.0,0.0,47,0.00,,,0.00,WUHU216HW,2013-06-05 22:17:00,
2013-06-05 17:22:00,92.3,68.3,29.77,North,0,0.0,0.0,46,0.00,,,0.00,WUHU216HW,2013-06-05 22:22:00,
2013-06-05 17:27:00,91.0,65.9,29.76,North,0,0.0,0.0,44,0.00,,,0.00,WUHU216HW,2013-06-05 22:27:00,
2013-06-05 17:32:00,90.3,67.2,29.75,North,0,0.0,0.0,47,0.00,,,0.00,WUHU216HW,2013-06-05 22:32:00,
2013-06-05 17:37:00,90.3,67.2,29.75,North,0,0.0,0.0,47,0.00,,,0.00,WUHU216HW,2013-06-05 22:37:00,
2013-06-05 17:42:00,90.5,66.7,29.75,North,0,0.0,0.0,47,0.00,,,0.00,WUHU216HW,2013-06-05 22:42:00,
2013-06-05 17:47:00,90.5,66.7,29.75,North,0,0.0,0.0,48,0.00,,,0.00,WUHU216HW,2013-06-05 22:47:00,
2013-06-05 17:52:00,90.1,68.3,29.75,North,0,0.0,0.0,48,0.00,,,0.00,WUHU216HW,2013-06-05 22:52:00,
2013-06-05 17:57:00,89.9,66.9,29.75,North,0,0.0,0.0,47,0.00,,,0.00,WUHU216HW,2013-06-05 22:57:00,
2013-06-05 18:02:00,89.9,66.9,29.76,North,0,0.0,0.0,48,0.00,,,0.00,WUHU216HW,2013-06-05 23:02:00,
2013-06-05 18:07:00,89.4,67.0,29.75,North,0,0.0,0.0,48,0.00,,,0.00,WUHU216HW,2013-06-05 23:07:00,
2013-06-05 18:12:00,89.4,67.0,29.76,North,0,0.0,0.0,49,0.00,,,0.00,WUHU216HW,2013-06-05 23:12:00,
2013-06-05 18:17:00,89.4,67.0,29.76,North,0,0.0,0.0,49,0.00,,,0.00,WUHU216HW,2013-06-05 23:17:00,
2013-06-05 18:22:00,89.2,67.5,29.76,North,0,0.0,0.0,50,0.00,,,0.00,WUHU216HW,2013-06-05 23:22:00,
2013-06-05 18:27:00,89.2,67.5,29.76,North,0,0.0,0.0,50,0.00,,,0.00,WUHU216HW,2013-06-05 23:27:00,
2013-06-05 18:32:00,89.2,67.5,29.76,North,0,0.0,0.0,50,0.00,,,0.00,WUHU216HW,2013-06-05 23:32:00,
2013-06-05 18:37:00,88.7,68.2,29.75,North,0,0.0,0.0,51,0.00,,,0.00,WUHU216HW,2013-06-05 23:37:00,
2013-06-05 18:42:00,88.5,67.5,29.75,North,0,0.0,0.0,50,0.00,,,0.00,WUHU216HW,2013-06-05 23:42:00,
2013-06-05 18:47:00,88.3,66.7,29.75,North,0,0.0,0.0,50,0.00,,,0.00,WUHU216HW,2013-06-05 23:47:00,
2013-06-05 18:52:00,88.1,66.6,29.75,North,0,0.0,0.0,49,0.00,,,0.00,WUHU216HW,2013-06-05 23:52:00,
2013-06-05 18:57:00,87.8,65.6,29.75,North,0,0.0,0.0,48,0.00,,,0.00,WUHU216HW,2013-06-05 23:57:00,
2013-06-05 19:02:00,87.6,66.7,29.75,North,0,0.0,0.0,50,0.00,,,0.00,WUHU216HW,2013-06-06 00:02:00,
2013-06-05 19:07:00,87.4,67.1,29.75,North,0,0.0,0.0,50,0.00,,,0.00,WUHU216HW,2013-06-06 00:07:00,
2013-06-05 19:12:00,87.0,66.2,29.75,North,0,0.0,0.0,50,0.00,,,0.00,WUHU216HW,2013-06-06 00:12:00,
2013-06-05 19:17:00,86.9,66.6,29.74,North,0,0.0,0.0,51,0.00,,,0.00,WUHU216HW,2013-06-06 00:17:00,
2013-06-05 19:22:00,86.7,66.4,29.75,North,0,0.0,0.0,51,0.00,,,0.00,WUHU216HW,2013-06-06 00:22:00,
2013-06-05 19:27:00,86.5,66.3,29.74,North,0,0.0,0.0,51,0.00,,,0.00,WUHU216HW,2013-06-06 00:27:00,
2013-06-05 19:32:00,86.3,66.1,29.74,North,0,0.0,0.0,51,0.00,,,0.00,WUHU216HW,2013-06-06 00:32:00,
2013-06-05 19:37:00,86.1,65.9,29.74,North,0,0.0,0.0,51,0.00,,,0.00,WUHU216HW,2013-06-06 00:37:00,
2013-06-05 19:42:00,85.6,66.5,29.75,North,0,0.0,0.0,53,0.00,,,0.00,WUHU216HW,2013-06-06 00:42:00,
2013-06-05 19:47:00,85.1,66.5,29.75,North,0,0.0,0.0,54,0.00,,,0.00,WUHU216HW,2013-06-06 00:47:00,
2013-06-05 19:52:00,84.7,66.2,29.75,North,0,0.0,0.0,55,0.00,,,0.00,WUHU216HW,2013-06-06 00:52:00,
2013-06-05 19:57:00,84.0,66.1,29.76,North,0,0.0,0.0,55,0.00,,,0.00,WUHU216HW,2013-06-06 00:57:00,
2013-06-05 20:02:00,83.4,66.0,29.76,North,0,0.0,0.0,56,0.00,,,0.00,WUHU216HW,2013-06-06 01:02:00,
2013-06-05 20:07:00,83.3,66.4,29.76,North,0,0.0,0.0,57,0.00,,,0.00,WUHU216HW,2013-06-06 01:07:00,
2013-06-05 20:12:00,82.9,66.0,29.77,North,0,0.0,0.0,57,0.00,,,0.00,WUHU216HW,2013-06-06 01:12:00,
2013-06-05 20:17:00,82.5,66.2,29.77,North,0,0.0,0.0,58,0.00,,,0.00,WUHU216HW,2013-06-06 01:17:00,
2013-06-05 20:22:00,82.2,65.8,29.77,North,0,0.0,0.0,58,0.00,,,0.00,WUHU216HW,2013-06-06 01:22:00,
2013-06-05 20:27:00,82.0,65.7,29.77,North,0,0.0,0.0,58,0.00,,,0.00,WUHU216HW,2013-06-06 01:27:00,
2013-06-05 20:32:00,81.6,65.9,29.77,North,0,0.0,0.0,59,0.00,,,0.00,WUHU216HW,2013-06-06 01:32:00,
2013-06-05 20:37:00,81.3,65.6,29.77,North,0,0.0,0.0,59,0.00,,,0.00,WUHU216HW,2013-06-06 01:37:00,
2013-06-05 20:42:00,80.9,65.8,29.77,North,0,0.0,0.0,60,0.00,,,0.00,WUHU216HW,2013-06-06 01:42:00,
2013-06-05 20:48:00,80.4,65.7,29.77,North,0,0.0,0.0,61,0.00,,,0.00,WUHU216HW,2013-06-06 01:48:00,
2013-06-05 20:53:00,80.2,65.6,29.78,North,0,0.0,0.0,61,0.00,,,0.00,WUHU216HW,2013-06-06 01:53:00,
2013-06-05 20:58:00,79.8,65.7,29.78,North,0,0.0,0.0,62,0.00,,,0.00,WUHU216HW,2013-06-06 01:58:00,
2013-06-05 21:03:00,79.5,65.8,29.78,North,0,0.0,0.0,63,0.00,,,0.00,WUHU216HW,2013-06-06 02:03:00,
2013-06-05 21:08:00,79.3,65.6,29.77,North,0,0.0,0.0,63,0.00,,,0.00,WUHU216HW,2013-06-06 02:08:00,
2013-06-05 21:13:00,78.9,65.7,29.78,North,0,0.0,0.0,64,0.00,,,0.00,WUHU216HW,2013-06-06 02:13:00,
2013-06-05 21:18:00,78.6,65.4,29.78,North,0,0.0,0.0,64,0.00,,,0.00,WUHU216HW,2013-06-06 02:18:00,
2013-06-05 21:23:00,78.6,65.4,29.78,North,0,0.0,0.0,65,0.00,,,0.00,WUHU216HW,2013-06-06 02:23:00,
2013-06-05 21:28:00,78.2,65.9,29.78,North,0,0.0,0.0,66,0.00,,,0.00,WUHU216HW,2013-06-06 02:28:00,
2013-06-05 21:33:00,78.0,66.2,29.78,North,0,0.0,0.0,67,0.00,,,0.00,WUHU216HW,2013-06-06 02:33:00,
2013-06-05 21:38:00,78.0,66.2,29.78,North,0,0.0,0.0,67,0.00,,,0.00,WUHU216HW,2013-06-06 02:38:00,
2013-06-05 21:43:00,77.1,65.8,29.78,North,0,0.0,0.0,68,0.00,,,0.00,WUHU216HW,2013-06-06 02:43:00,
2013-06-05 21:48:00,77.1,65.8,29.78,North,0,0.0,0.0,68,0.00,,,0.00,WUHU216HW,2013-06-06 02:48:00,
2013-06-05 21:53:00,76.8,65.4,29.78,North,0,0.0,0.0,68,0.00,,,0.00,WUHU216HW,2013-06-06 02:53:00,
2013-06-05 21:58:00,76.6,65.3,29.78,North,0,0.0,0.0,68,0.00,,,0.00,WUHU216HW,2013-06-06 02:58:00,
2013-06-05 22:03:00,76.6,65.3,29.78,North,0,0.0,0.0,69,0.00,,,0.00,WUHU216HW,2013-06-06 03:03:00,
2013-06-05 22:08:00,76.6,65.3,29.78,North,0,0.0,0.0,68,0.00,,,0.00,WUHU216HW,2013-06-06 03:08:00,
2013-06-05 22:13:00,76.6,65.3,29.77,North,0,0.0,0.0,69,0.00,,,0.00,WUHU216HW,2013-06-06 03:13:00,
2013-06-05 22:18:00,76.6,65.3,29.77,North,0,0.0,0.0,69,0.00,,,0.00,WUHU216HW,2013-06-06 03:18:00,
2013-06-05 23:11:00,75.0,66.5,29.82,North,0,0.0,0.0,75,0.00,,,0.00,WUHU216HW,2013-06-06 04:11:00,
2013-06-05 23:16:00,74.8,66.4,29.82,North,0,0.0,0.0,75,0.00,,,0.00,WUHU216HW,2013-06-06 04:16:00,
2013-06-05 23:21:00,74.6,66.2,29.82,North,0,0.0,0.0,75,0.00,,,0.00,WUHU216HW,2013-06-06 04:21:00,
2013-06-05 23:26:00,74.4,66.0,29.82,North,0,0.0,0.0,75,0.00,,,0.00,WUHU216HW,2013-06-06 04:26:00,
2013-06-05 23:31:00,74.1,66.1,29.82,North,0,0.0,0.0,76,0.00,,,0.00,WUHU216HW,2013-06-06 04:31:00,
2013-06-05 23:36:00,73.9,66.3,29.83,North,0,0.0,0.0,77,0.00,,,0.00,WUHU216HW,2013-06-06 04:36:00,
2013-06-05 23:41:00,73.9,66.3,29.83,North,0,0.0,0.0,76,0.00,,,0.00,WUHU216HW,2013-06-06 04:41:00,
2013-06-05 23:46:00,73.7,66.1,29.83,North,0,0.0,0.0,77,0.00,,,0.00,WUHU216HW,2013-06-06 04:46:00,
2013-06-05 23:51:00,73.5,65.9,29.83,North,0,0.0,0.0,77,0.00,,,0.00,WUHU216HW,2013-06-06 04:51:00,
2013-06-05 23:56:00,73.5,65.9,29.83,North,0,0.0,0.0,77,0.00,,,0.00,WUHU216HW,2013-06-06 04:56:00,